Location: Villingen
(48.0639°N, 8.4609°E)
Time: 20:45:49
(UTC+01:00)

N. Korean satellite - Visible Passes

Search period start: 20 February 2018 00:00
Search period end: 02 March 2018 00:00
Orbit: 459 x 514 km, 97.2° (Epoch: 20 February)

Date Brightness Start Highest point End Pass type
(mag) Time Alt. Az. Time Alt. Az. Time Alt. Az.
20 Feb 8.6 06:43:03 10° NNE 06:46:26 35° E 06:49:51 10° SSE visible
20 Feb 9.1 18:56:26 10° SSW 18:59:22 26° W 19:02:21 10° NW visible
21 Feb 9.8 06:19:49 10° NE 06:22:34 20° E 06:25:19 10° SE visible
21 Feb 7.6 18:32:10 10° S 18:35:31 50° W 18:38:56 10° NNW visible
22 Feb 10.5 05:57:31 10° ENE 05:58:36 11° E 05:59:41 10° ESE visible
23 Feb 10.0 19:19:44 10° SW 19:21:47 15° W 19:23:51 10° NW visible
24 Feb 8.7 06:41:34 10° NNE 06:44:57 34° E 06:48:23 10° SSE visible
24 Feb 9.0 18:54:51 10° SSW 18:57:51 27° W 19:00:53 10° NW visible
25 Feb 9.9 06:18:20 10° NE 06:21:04 19° E 06:23:49 10° SE visible
26 Feb 10.6 05:56:06 10° ENE 05:57:06 11° E 05:58:06 10° ESE visible
27 Feb 10.0 19:18:04 10° SW 19:20:13 15° W 19:22:24 10° NW visible
28 Feb 9.0 18:53:13 10° SSW 18:56:16 28° W 18:59:23 10° NW visible
01 Mar 10.0 06:16:48 10° NE 06:19:32 19° E 06:22:15 10° SE visible
